This is the latest recevied weather packets stored in our database for station/object KD8FRE. If no packets are shown the sender has not sent any weather packets the latest 10 day(s).
| Time | Temp. | Humidity | Pressure | Rain* | Wind** | Luminosity | Snow |
|---|---|---|---|---|---|---|---|
| 1777991091 | 12.78° C | 61% | 1006.3 hPa | 0 mm | - | 92 W/m² | - |
| 1777990788 | 12.78° C | 61% | 1006.4 hPa | 0 mm | - | 100 W/m² | - |
| 1777990485 | 12.78° C | 60% | 1006.2 hPa | 0 mm | - | 126 W/m² | - |
| 1777989879 | 12.78° C | 60% | 1006.2 hPa | 0 mm | - | 133 W/m² | - |
| 1777989575 | 12.78° C | 60% | 1006.2 hPa | 0 mm | - | 101 W/m² | - |
| 1777989272 | 12.78° C | 60% | 1006.2 hPa | 0 mm | - | 91 W/m² | - |
| 1777988969 | 12.78° C | 59% | 1006.1 hPa | 0 mm | - | 82 W/m² | - |
| 1777988665 | 12.78° C | 61% | 1006 hPa | 0 mm | - | 100 W/m² | - |
| 1777988361 | 12.78° C | 60% | 1005.8 hPa | 0 mm | - | 130 W/m² | - |
| 1777988059 | 12.78° C | 61% | 1005.6 hPa | 0 mm | - | 159 W/m² | - |
| 1777987754 | 12.78° C | 59% | 1005.2 hPa | 0 mm | - | 101 W/m² | - |
| 1777987452 | 12.78° C | 59% | 1005.3 hPa | 0 mm | - | 125 W/m² | - |
| 1777987149 | 12.78° C | 59% | 1004.7 hPa | 0 mm | - | 111 W/m² | - |
| 1777986846 | 13.33° C | 58% | 1005.3 hPa | 0 mm | - | 66 W/m² | - |
| 1777986544 | 13.33° C | 59% | 1005 hPa | 0 mm | - | 48 W/m² | - |
| 1777986241 | 13.33° C | 58% | 1004.9 hPa | 0 mm | - | 77 W/m² | - |
| 1777985938 | 13.89° C | 57% | 1004.4 hPa | 0 mm | - | 104 W/m² | - |
| 1777985636 | 13.89° C | 57% | 1004.1 hPa | 0 mm | - | 215 W/m² | - |
| 1777985332 | 13.89° C | 58% | 1004.2 hPa | 0 mm | - | 177 W/m² | - |
| 1777985029 | 13.89° C | 57% | 1004.2 hPa | 0 mm | - | 182 W/m² | - |
| 1777984725 | 13.89° C | 57% | 1004.4 hPa | 0 mm | - | 150 W/m² | - |
| 1777984422 | 13.33° C | 57% | 1004.2 hPa | 0 mm | - | 147 W/m² | - |
| 1777984118 | 13.33° C | 57% | 1004.2 hPa | 0 mm | - | 115 W/m² | - |
| 1777983816 | 13.33° C | 59% | 1004.1 hPa | 0 mm | - | 116 W/m² | - |
| 1777983512 | 13.33° C | 58% | 1004.3 hPa | 0 mm | - | 102 W/m² | - |
* Rain latest hour (hover to see other rain measurements)
** Current wind speed in m/s (hover to see current wind gust speed)